SCP
-0 -0 -0 -0 -0 -0 -0 -0 -0 -0 -0 -0 -0 -0 -0 -0 -0 -0 -0 -0 -0 -0 -0 -0 -0 -0 -0 -0 -0 -0 -0 -0 -0 -0 -0 -0 -0 -0 -0 -0 0 0 0
-0 -0 -0 -0 -0 -0 -0 -0 -1 -0 -0 -0 -0 -0 -0 -0 -0 -0 -0 -0 0 -0 -0 -0 -0 -0 -0 -0 -0 -0 -0 -0 -0 -0 -0 -0 -0 -0 -0 -0 -0 -0 -0
-0 0 -0 -0 -0 -0 -1 -0 -1 -1 -1 -1 -0 -0 -0 -0 -0 -0 -0 -0 0 0 -0 0 0 0 0 -0 -0 -0 -0 -0 -0 -0 -0 -0 0 0 -0 0 -0 -0 -0
0 0 -0 -0 -0 -0 -0 -1 -1 -1 -1 -1 -0 -0 -0 -0 -0 -0 -0 -0 0 0 0 0 0 0 0 0 0 -0 0 0 0 0 -0 -0 0 0 0 0 -0 -0 -0
0 -0 -0 -0 -1 -0 -0 -1 -0 -0 -0 -0 -0 -0 -0 -0 -0 -0 0 0 0 0 0 0 0 0 0 0 0 0 0 0 0 0 -0 -0 -0 0 -0 0 0 -0 0
0 -0 -0 -0 -0 -0 -0 -0 -0 -0 -0 -0 -0 -0 -0 -0 -0 0 0 0 0 0 0 0 0 0 0 0 0 0 0 0 0 0 -0 -0 -0 0 0 0 0 0 0
-0 -0 -0 0 -0 -0 -0 -0 -0 -0 -0 -0 -0 -0 -0 0 0 0 0 0 0 0 0 0 0 0 0 0 0 0 0 0 0 0 0 -0 0 -0 -0 0 -0 0 -0
0 0 0 -0 -0 -0 -0 -0 -0 -0 -0 -0 -0 0 0 0 0 0 0 0 0 0 0 0 0 0 0 0 0 0 0 0 0 0 0 -0 0 -0 -0 -0 -0 -0 -0
-0 0 0 -0 -0 0 0 -0 -0 0 0 0 0 0 0 0 0 0 0 0 0 0 0 0 0 0 0 0 0 0 0 0 0 0 0 0 0 -0 -0 -0 -0 -0 -0
0 0 0 0 0 0 0 0 0 0 0 0 0 0 0 0 0 0 0 0 0 0 0 0 0 0 0 0 0 0 0 0 0 0 0 0 0 0 0 0 -0 -0 -0
0 0 0 0 0 0 0 0 0 0 0 0 0 0 0 0 0 0 0 0 0 0 0 0 0 0 0 0 0 0 0 0 0 0 0 0 0 0 0 0 0 0 -0
0 0 0 0 0 0 0 0 0 0 0 0 0 0 0 0 0 0 0 0 0 0 0 0 0 0 0 0 0 0 0 0 0 0 0 0 0 0 0 0 0 0 0
0 0 0 0 0 0 0 0 0 0 0 0 0 0 0 0 0 0 0 0 0 0 0 0 0 0 0 0 0 0 0 0 0 0 0 0 0 0 0 0 0 0 0
0 0 0 0 0 0 0 0 0 0 0 0 0 0 0 0 0 0 0 0 0 0 0 0 0 0 0 0 0 0 0 0 0 0 0 0 0 0 0 0 0 0 0
0 0 0 0 0 0 0 0 0 0 0 0 0 0 0 0 0 0 0 0 0 0 0 0 0 0 0 0 0 0 0 0 0 0 0 0 0 0 0 0 0 0 0
-0 0 0 0 0 0 0 0 0 0 0 0 0 0 0 0 0 0 0 0 0 0 0 0 0 0 0 0 0 0 0 0 0 0 0 0 0 0 0 0 0 0 0
0 0 0 0 0 0 0 0 1 1 0 0 0 0 0 0 0 0 0 0 0 0 0 0 0 0 0 0 0 0 0 0 0 0 0 0 0 0 0 0 0 0 0
0 0 0 0 0 0 1 1 1 1 1 1 0 0 0 0 0 0 0 0 0 0 0 0 0 0 0 0 0 0 0 0 0 0 0 0 0 0 0 0 0 0 0
0 0 0 0 0 0 1 1 1 1 1 1 1 1 1 0 0 0 0 0 0 0 0 0 0 0 0 0 0 0 0 0 0 0 0 0 0 0 0 0 0 0 0
0 -0 0 0 0 1 1 1 1 1 1 1 1 1 1 0 0 0 0 0 0 0 0 0 0 0 0 0 0 0 0 0 0 0 0 0 0 0 0 0 0 0 0
-0 -0 -0 0 1 1 1 1 1 0 1 1 1 1 0 1 1 1 1 0 0 0 0 0 0 0 0 0 0 0 0 0 0 0 0 0 0 0 0 0 0 0 0
0 0 0 0 1 1 1 1 1 1 1 1 1 1 1 1 1 1 0 0 0 0 0 0 0 1 0 0 0 0 0 0 0 0 0 0 0 0 0 0 0 0 0
0 0 0 1 1 1 1 2 3 3 2 1 0 1 1 1 1 0 0 0 0 0 0 0 0 0 0 0 0 0 0 0 0 0 0 0 0 0 0 0 0 0 0
0 0 0 0 1 2 2 2 3 3 2 2 1 1 2 1 1 1 0 0 0 0 0 0 0 0 0 0 0 0 0 0 0 0 0 0 0 0 0 0 0 0 0
0 0 0 0 1 2 2 3 3 4 3 3 3 3 3 2 1 1 0 0 0 0 0 0 0 0 0 0 0 0 0 0 0 0 0 0 0 0 0 0 0 0 0
0 0 0 0 0 1 1 1 3 3 4 3 3 3 2 2 1 1 1 0 0 0 0 0 0 0 0 0 0 0 0 0 0 0 0 0 0 0 0 0 0 0 0
Wind_Speed_500mb
49 43 46 49 47 43 39 39 37 34 30 27 25 25 24 24 24 25 26 25 26 26 26 25 24 26 28 32 36 42 44 42 39 36 33 29 31 30 24 28 27 26 30
57 49 46 48 48 44 39 36 34 31 31 29 27 26 24 22 23 23 24 24 25 26 24 22 22 24 26 30 36 41 45 45 41 37 33 33 30 27 27 26 31 33 25
51 50 47 45 47 43 38 34 32 32 31 29 27 26 25 24 23 23 23 23 23 23 20 20 20 23 24 27 33 37 41 44 42 39 35 25 22 24 20 30 25 18 13
54 52 52 48 46 42 38 35 34 33 31 30 28 26 23 22 22 21 20 20 19 19 19 20 19 21 22 24 28 32 39 42 42 40 33 26 21 24 27 24 18 18 20
59 54 53 50 46 42 39 36 35 34 31 29 27 25 22 20 20 20 18 16 16 15 17 16 16 18 21 23 25 29 35 39 41 41 34 29 23 30 29 25 23 23 24
56 52 49 48 45 43 41 38 36 33 30 29 27 25 23 22 20 19 19 16 14 14 15 15 13 15 16 17 21 24 28 34 40 39 37 37 28 33 32 32 32 31 29
56 54 50 47 45 42 39 36 35 32 28 26 26 25 23 21 20 19 18 16 14 13 13 13 11 10 12 13 16 20 23 27 33 35 36 34 33 35 35 36 36 34 36
53 53 49 46 44 42 40 37 35 33 29 26 24 22 20 19 17 16 15 15 12 12 13 12 10 7 7 9 12 16 18 22 27 31 33 33 33 33 35 34 35 36 36
52 52 52 50 46 42 39 38 36 33 30 28 25 22 20 17 15 15 15 15 14 12 12 12 11 8 5 4 7 11 13 17 20 25 30 29 30 31 32 33 34 35 35
54 56 56 52 49 45 42 39 37 34 31 26 23 21 18 17 16 16 15 15 15 13 12 13 13 11 8 4 1 4 7 8 12 18 23 26 28 28 28 29 31 31 33
56 56 55 51 49 48 46 42 39 36 31 30 26 23 21 20 20 18 16 15 14 14 13 14 15 15 13 11 8 6 4 5 7 12 17 21 24 23 22 22 25 27 29
54 55 55 57 56 52 47 45 44 41 41 38 32 28 28 23 21 20 19 17 17 15 16 16 17 18 18 15 13 10 8 7 9 11 13 14 16 19 18 18 19 22 24
52 54 54 55 53 53 50 48 47 46 45 41 37 34 30 28 27 26 23 22 21 19 18 18 19 20 21 19 16 16 16 13 15 16 20 22 18 15 16 15 14 15 18
49 48 49 48 48 47 48 49 49 48 47 45 41 37 35 32 29 27 24 24 22 22 21 20 21 20 22 21 23 22 19 16 18 23 26 24 24 19 15 15 11 11 13
48 48 49 46 44 45 46 49 50 50 46 43 38 39 36 34 31 26 25 27 26 25 23 19 19 20 22 26 28 26 24 20 19 22 23 26 25 23 20 17 14 9 9
47 48 47 46 45 47 49 49 47 46 43 39 38 37 36 35 32 28 27 29 28 26 21 17 17 19 26 28 28 26 27 25 23 24 27 27 28 26 23 23 18 13 10
46 50 46 46 44 46 46 43 45 44 43 41 37 36 38 37 35 30 29 30 32 30 26 26 22 21 21 25 24 27 29 29 27 28 26 27 26 26 24 24 24 20 15
52 53 51 47 47 50 54 51 49 46 45 45 40 38 40 39 37 31 32 32 29 29 29 33 28 27 25 22 21 21 24 27 28 30 27 29 25 27 23 19 25 26 24
54 55 54 54 57 53 56 57 54 51 47 50 42 40 41 40 37 31 34 34 31 29 25 33 33 28 28 25 25 26 22 20 21 23 28 25 21 19 19 15 20 25 27
60 62 61 59 58 60 55 58 59 58 47 41 48 43 40 42 39 35 38 34 38 30 29 35 31 31 28 24 22 18 18 18 21 26 26 24 22 20 17 21 22 25 27
66 68 67 66 66 62 62 63 62 70 68 50 45 44 42 46 42 38 37 39 37 35 33 29 26 25 25 20 18 21 22 23 24 22 21 18 17 17 17 18 23 27 30
68 73 73 70 67 68 66 63 70 74 69 60 52 50 51 45 45 41 37 35 36 35 34 34 28 26 26 24 23 22 8 5 1 5 5 7 9 12 14 15 18 25 27
57 68 74 79 75 73 74 73 77 74 67 57 56 52 50 44 45 40 35 33 34 34 35 32 31 28 25 23 21 13 6 8 3 4 2 6 6 9 12 16 21 24 25
17 44 69 74 83 83 85 85 83 80 76 71 64 54 48 43 41 38 34 32 34 35 33 31 34 30 25 23 20 16 13 9 3 4 8 7 12 13 15 16 20 21 19
43 34 37 66 83 88 95 95 93 86 80 73 63 58 48 45 40 37 33 31 33 34 32 29 30 30 25 20 17 15 12 10 8 6 12 10 13 12 12 16 18 15 13
64 55 41 37 50 65 86 99 100 93 87 77 66 62 56 51 44 38 33 31 36 36 39 35 31 27 23 20 17 14 12 8 9 10 10 14 14 12 16 15 17 12 11
Wind_Direction_500mb
172 165 159 159 160 159 157 155 155 156 154 149 141 135 130 125 122 123 124 125 126 127 123 112 101 89 89 78 65 59 55 53 54 54 58 65 69 67 76 82 76 81 73
167 164 162 163 162 163 162 161 162 161 158 151 146 140 135 130 126 125 128 129 130 128 126 118 106 93 92 80 68 60 54 50 49 52 57 51 71 74 68 73 81 86 90
174 161 163 168 164 165 167 167 169 165 159 153 148 144 140 136 132 131 132 133 133 132 130 124 109 95 93 79 67 59 54 51 49 50 54 73 72 68 74 72 74 84 94
176 170 167 170 168 165 169 170 170 166 161 156 151 146 142 138 135 134 136 140 141 138 135 130 113 95 89 80 70 62 55 49 48 50 60 74 71 56 63 71 80 73 71
178 176 169 170 171 169 171 172 170 167 163 159 156 151 146 142 143 141 139 143 145 143 138 135 123 104 91 78 67 61 55 51 46 49 58 66 74 53 59 59 57 60 65
180 176 172 173 175 174 173 173 172 170 168 163 158 157 154 153 150 148 149 153 157 156 154 151 136 116 100 84 68 62 57 51 48 48 52 54 62 53 55 52 51 47 49
182 178 174 175 177 177 176 177 177 173 169 167 164 163 163 161 157 158 157 159 162 171 174 173 153 134 109 85 71 66 61 52 47 45 51 58 55 54 53 51 52 50 49
184 179 178 176 179 179 181 181 180 177 175 174 171 170 171 170 169 163 164 164 173 188 192 195 177 162 129 93 70 60 55 52 49 45 45 51 51 53 52 51 52 51 49
183 183 182 183 181 184 186 187 187 183 182 180 181 179 178 182 182 180 175 178 183 194 206 212 214 198 186 121 73 52 48 49 46 44 42 42 42 47 50 51 51 51 49
185 187 188 187 185 186 189 193 193 192 191 191 191 190 191 195 197 197 194 192 192 196 212 220 229 232 231 223 143 40 36 38 28 31 33 32 33 38 41 46 48 50 48
187 191 191 192 195 193 194 194 199 201 201 203 201 201 207 210 211 211 211 209 207 205 213 218 229 232 241 248 251 266 315 342 351 7 13 14 19 26 32 37 42 43 45
190 193 195 198 199 200 198 200 202 205 209 210 210 212 215 219 223 221 221 219 220 217 217 221 225 233 235 233 253 264 282 300 315 325 330 336 356 5 13 20 30 35 38
195 199 200 202 202 204 204 206 209 210 215 216 216 222 223 224 227 230 229 229 226 225 223 225 228 236 233 238 243 252 260 267 282 302 307 324 331 335 348 356 10 25 28
201 204 205 205 207 209 211 212 215 216 218 219 220 222 230 230 233 236 241 241 237 234 232 231 233 240 249 248 245 247 256 272 285 291 299 317 322 310 316 326 338 355 12
207 209 209 208 207 210 214 216 217 218 220 223 226 229 232 236 239 242 245 244 243 241 235 236 239 236 242 250 247 249 256 263 276 290 309 310 315 306 292 300 308 312 334
210 214 215 215 214 213 214 218 220 223 223 223 227 232 237 241 243 246 247 245 240 240 236 239 250 248 238 243 251 252 259 265 274 289 301 306 305 303 290 283 289 293 292
223 221 222 225 224 224 224 224 223 222 225 223 228 234 238 241 243 246 250 242 237 240 242 245 252 261 251 245 251 257 262 268 279 287 299 311 303 301 288 280 274 284 285
237 237 229 231 233 229 228 225 224 224 227 224 227 235 238 242 243 247 253 240 235 242 249 245 250 257 258 242 246 256 265 272 280 284 289 305 302 289 294 280 271 275 282
241 243 241 238 239 237 233 229 226 223 230 231 231 240 242 244 245 249 256 240 233 241 251 246 245 248 259 255 255 258 267 274 273 290 296 291 296 295 281 266 274 270 274
241 243 246 245 243 241 242 234 232 229 231 237 236 245 246 247 247 248 254 247 236 239 263 247 240 244 247 247 245 247 261 276 281 287 288 291 289 296 281 260 274 272 268
242 240 246 250 247 243 233 234 235 234 232 239 239 247 243 249 253 251 249 249 249 254 256 228 223 246 246 234 241 259 268 278 278 277 279 278 283 281 279 272 274 277 274
249 247 247 246 244 238 230 226 233 231 236 239 246 240 238 248 249 247 250 247 245 245 231 227 237 234 237 237 237 250 247 254 240 267 290 304 299 303 302 288 280 291 291
248 248 246 248 243 234 228 226 231 232 233 233 241 241 242 242 239 241 246 246 240 231 221 241 233 227 238 234 213 211 208 210 266 290 160 344 333 330 320 309 303 289 283
309 252 244 239 242 239 231 229 230 231 228 225 233 235 236 232 227 232 243 244 232 223 228 224 216 227 215 206 201 207 214 217 203 260 283 297 331 325 320 323 317 305 280
8 336 269 247 245 238 236 231 232 231 232 231 234 235 229 221 216 232 240 238 226 214 205 201 203 196 197 205 205 205 223 240 252 243 292 300 321 318 321 324 331 304 273
27 16 347 288 258 249 239 235 234 233 231 231 231 230 223 216 213 226 235 232 220 216 205 201 195 197 202 207 208 208 219 218 234 253 261 301 304 313 327 332 338 313 287
Wind_Speed_850mb
49 43 46 49 47 43 39 39 37 34 30 27 25 25 24 24 24 25 26 25 26 26 26 25 24 26 28 32 36 42 44 42 39 36 33 29 31 30 24 28 27 26 30
57 49 46 48 48 44 39 36 34 31 31 29 27 26 24 22 23 23 24 24 25 26 24 22 22 24 26 30 36 41 45 45 41 37 33 33 30 27 27 26 31 33 25
51 50 47 45 47 43 38 34 32 32 31 29 27 26 25 24 23 23 23 23 23 23 20 20 20 23 24 27 33 37 41 44 42 39 35 25 22 24 20 30 25 18 13
54 52 52 48 46 42 38 35 34 33 31 30 28 26 23 22 22 21 20 20 19 19 19 20 19 21 22 24 28 32 39 42 42 40 33 26 21 24 27 24 18 18 20
59 54 53 50 46 42 39 36 35 34 31 29 27 25 22 20 20 20 18 16 16 15 17 16 16 18 21 23 25 29 35 39 41 41 34 29 23 30 29 25 23 23 24
56 52 49 48 45 43 41 38 36 33 30 29 27 25 23 22 20 19 19 16 14 14 15 15 13 15 16 17 21 24 28 34 40 39 37 37 28 33 32 32 32 31 29
56 54 50 47 45 42 39 36 35 32 28 26 26 25 23 21 20 19 18 16 14 13 13 13 11 10 12 13 16 20 23 27 33 35 36 34 33 35 35 36 36 34 36
53 53 49 46 44 42 40 37 35 33 29 26 24 22 20 19 17 16 15 15 12 12 13 12 10 7 7 9 12 16 18 22 27 31 33 33 33 33 35 34 35 36 36
52 52 52 50 46 42 39 38 36 33 30 28 25 22 20 17 15 15 15 15 14 12 12 12 11 8 5 4 7 11 13 17 20 25 30 29 30 31 32 33 34 35 35
54 56 56 52 49 45 42 39 37 34 31 26 23 21 18 17 16 16 15 15 15 13 12 13 13 11 8 4 1 4 7 8 12 18 23 26 28 28 28 29 31 31 33
56 56 55 51 49 48 46 42 39 36 31 30 26 23 21 20 20 18 16 15 14 14 13 14 15 15 13 11 8 6 4 5 7 12 17 21 24 23 22 22 25 27 29
54 55 55 57 56 52 47 45 44 41 41 38 32 28 28 23 21 20 19 17 17 15 16 16 17 18 18 15 13 10 8 7 9 11 13 14 16 19 18 18 19 22 24
52 54 54 55 53 53 50 48 47 46 45 41 37 34 30 28 27 26 23 22 21 19 18 18 19 20 21 19 16 16 16 13 15 16 20 22 18 15 16 15 14 15 18
49 48 49 48 48 47 48 49 49 48 47 45 41 37 35 32 29 27 24 24 22 22 21 20 21 20 22 21 23 22 19 16 18 23 26 24 24 19 15 15 11 11 13
48 48 49 46 44 45 46 49 50 50 46 43 38 39 36 34 31 26 25 27 26 25 23 19 19 20 22 26 28 26 24 20 19 22 23 26 25 23 20 17 14 9 9
47 48 47 46 45 47 49 49 47 46 43 39 38 37 36 35 32 28 27 29 28 26 21 17 17 19 26 28 28 26 27 25 23 24 27 27 28 26 23 23 18 13 10
46 50 46 46 44 46 46 43 45 44 43 41 37 36 38 37 35 30 29 30 32 30 26 26 22 21 21 25 24 27 29 29 27 28 26 27 26 26 24 24 24 20 15
52 53 51 47 47 50 54 51 49 46 45 45 40 38 40 39 37 31 32 32 29 29 29 33 28 27 25 22 21 21 24 27 28 30 27 29 25 27 23 19 25 26 24
54 55 54 54 57 53 56 57 54 51 47 50 42 40 41 40 37 31 34 34 31 29 25 33 33 28 28 25 25 26 22 20 21 23 28 25 21 19 19 15 20 25 27
60 62 61 59 58 60 55 58 59 58 47 41 48 43 40 42 39 35 38 34 38 30 29 35 31 31 28 24 22 18 18 18 21 26 26 24 22 20 17 21 22 25 27
66 68 67 66 66 62 62 63 62 70 68 50 45 44 42 46 42 38 37 39 37 35 33 29 26 25 25 20 18 21 22 23 24 22 21 18 17 17 17 18 23 27 30
68 73 73 70 67 68 66 63 70 74 69 60 52 50 51 45 45 41 37 35 36 35 34 34 28 26 26 24 23 22 8 5 1 5 5 7 9 12 14 15 18 25 27
57 68 74 79 75 73 74 73 77 74 67 57 56 52 50 44 45 40 35 33 34 34 35 32 31 28 25 23 21 13 6 8 3 4 2 6 6 9 12 16 21 24 25
17 44 69 74 83 83 85 85 83 80 76 71 64 54 48 43 41 38 34 32 34 35 33 31 34 30 25 23 20 16 13 9 3 4 8 7 12 13 15 16 20 21 19
43 34 37 66 83 88 95 95 93 86 80 73 63 58 48 45 40 37 33 31 33 34 32 29 30 30 25 20 17 15 12 10 8 6 12 10 13 12 12 16 18 15 13
64 55 41 37 50 65 86 99 100 93 87 77 66 62 56 51 44 38 33 31 36 36 39 35 31 27 23 20 17 14 12 8 9 10 10 14 14 12 16 15 17 12 11
Wind_Direction_850mb
172 165 159 159 160 159 157 155 155 156 154 149 141 135 130 125 122 123 124 125 126 127 123 112 101 89 89 78 65 59 55 53 54 54 58 65 69 67 76 82 76 81 73
167 164 162 163 162 163 162 161 162 161 158 151 146 140 135 130 126 125 128 129 130 128 126 118 106 93 92 80 68 60 54 50 49 52 57 51 71 74 68 73 81 86 90
174 161 163 168 164 165 167 167 169 165 159 153 148 144 140 136 132 131 132 133 133 132 130 124 109 95 93 79 67 59 54 51 49 50 54 73 72 68 74 72 74 84 94
176 170 167 170 168 165 169 170 170 166 161 156 151 146 142 138 135 134 136 140 141 138 135 130 113 95 89 80 70 62 55 49 48 50 60 74 71 56 63 71 80 73 71
178 176 169 170 171 169 171 172 170 167 163 159 156 151 146 142 143 141 139 143 145 143 138 135 123 104 91 78 67 61 55 51 46 49 58 66 74 53 59 59 57 60 65
180 176 172 173 175 174 173 173 172 170 168 163 158 157 154 153 150 148 149 153 157 156 154 151 136 116 100 84 68 62 57 51 48 48 52 54 62 53 55 52 51 47 49
182 178 174 175 177 177 176 177 177 173 169 167 164 163 163 161 157 158 157 159 162 171 174 173 153 134 109 85 71 66 61 52 47 45 51 58 55 54 53 51 52 50 49
184 179 178 176 179 179 181 181 180 177 175 174 171 170 171 170 169 163 164 164 173 188 192 195 177 162 129 93 70 60 55 52 49 45 45 51 51 53 52 51 52 51 49
183 183 182 183 181 184 186 187 187 183 182 180 181 179 178 182 182 180 175 178 183 194 206 212 214 198 186 121 73 52 48 49 46 44 42 42 42 47 50 51 51 51 49
185 187 188 187 185 186 189 193 193 192 191 191 191 190 191 195 197 197 194 192 192 196 212 220 229 232 231 223 143 40 36 38 28 31 33 32 33 38 41 46 48 50 48
187 191 191 192 195 193 194 194 199 201 201 203 201 201 207 210 211 211 211 209 207 205 213 218 229 232 241 248 251 266 315 342 351 7 13 14 19 26 32 37 42 43 45
190 193 195 198 199 200 198 200 202 205 209 210 210 212 215 219 223 221 221 219 220 217 217 221 225 233 235 233 253 264 282 300 315 325 330 336 356 5 13 20 30 35 38
195 199 200 202 202 204 204 206 209 210 215 216 216 222 223 224 227 230 229 229 226 225 223 225 228 236 233 238 243 252 260 267 282 302 307 324 331 335 348 356 10 25 28
201 204 205 205 207 209 211 212 215 216 218 219 220 222 230 230 233 236 241 241 237 234 232 231 233 240 249 248 245 247 256 272 285 291 299 317 322 310 316 326 338 355 12
207 209 209 208 207 210 214 216 217 218 220 223 226 229 232 236 239 242 245 244 243 241 235 236 239 236 242 250 247 249 256 263 276 290 309 310 315 306 292 300 308 312 334
210 214 215 215 214 213 214 218 220 223 223 223 227 232 237 241 243 246 247 245 240 240 236 239 250 248 238 243 251 252 259 265 274 289 301 306 305 303 290 283 289 293 292
223 221 222 225 224 224 224 224 223 222 225 223 228 234 238 241 243 246 250 242 237 240 242 245 252 261 251 245 251 257 262 268 279 287 299 311 303 301 288 280 274 284 285
237 237 229 231 233 229 228 225 224 224 227 224 227 235 238 242 243 247 253 240 235 242 249 245 250 257 258 242 246 256 265 272 280 284 289 305 302 289 294 280 271 275 282
241 243 241 238 239 237 233 229 226 223 230 231 231 240 242 244 245 249 256 240 233 241 251 246 245 248 259 255 255 258 267 274 273 290 296 291 296 295 281 266 274 270 274
241 243 246 245 243 241 242 234 232 229 231 237 236 245 246 247 247 248 254 247 236 239 263 247 240 244 247 247 245 247 261 276 281 287 288 291 289 296 281 260 274 272 268
242 240 246 250 247 243 233 234 235 234 232 239 239 247 243 249 253 251 249 249 249 254 256 228 223 246 246 234 241 259 268 278 278 277 279 278 283 281 279 272 274 277 274
249 247 247 246 244 238 230 226 233 231 236 239 246 240 238 248 249 247 250 247 245 245 231 227 237 234 237 237 237 250 247 254 240 267 290 304 299 303 302 288 280 291 291
248 248 246 248 243 234 228 226 231 232 233 233 241 241 242 242 239 241 246 246 240 231 221 241 233 227 238 234 213 211 208 210 266 290 160 344 333 330 320 309 303 289 283
309 252 244 239 242 239 231 229 230 231 228 225 233 235 236 232 227 232 243 244 232 223 228 224 216 227 215 206 201 207 214 217 203 260 283 297 331 325 320 323 317 305 280
8 336 269 247 245 238 236 231 232 231 232 231 234 235 229 221 216 232 240 238 226 214 205 201 203 196 197 205 205 205 223 240 252 243 292 300 321 318 321 324 331 304 273
27 16 347 288 258 249 239 235 234 233 231 231 231 230 223 216 213 226 235 232 220 216 205 201 195 197 202 207 208 208 219 218 234 253 261 301 304 313 327 332 338 313 287